Preview of NWS' New Version of Forecast
This preview is not operational and should not be used for support decisions.

Regional Weather Roundup (RWR)

Issued by National Weather Service (NWS)

                            
000
ASUS44 KMEG 210000
RWRTN 
TENNESSEE HOURLY STATE WEATHER ROUNDUP
NATIONAL WEATHER SERVICE MEMPHIS TN
700 PM CDT FRI SEP 20 2019

TNZ002-004-019-021-049-052-054-088>092-210100-
WEST TENNESSEE
  
CITY           SKY/WX    TMP DP  RH WIND       PRES   REMARKS
MEMPHIS INTL   MOCLDY    84  64  50 S6        30.11S                  
NWS MEMPHIS      N/A     83 N/A N/A MISG        N/A                   
JACKSON        FAIR      82  66  58 CALM      30.15R                  
DYERSBURG      FAIR      82  67  60 CALM      30.13S                  
$$

TNZ008-025-027-028-033-062-065-066-210100-
NORTH MIDDLE TENNESSEE
  
CITY           SKY/WX    TMP DP  RH WIND       PRES   REMARKS
NASHVILLE      FAIR      82  58  43 SE6       30.17S                  
CLARKSVILLE    FAIR      81  63  54 CALM      30.15R                  
SMYRNA         FAIR      78  62  57 CALM      30.18S                  
CROSSVILLE     FAIR      73  58  59 CALM      30.26R                  
$$

TNZ061-075-076-078-094-096-097-210100-
SOUTH MIDDLE TENNESSEE
  
CITY           SKY/WX    TMP DP  RH WIND       PRES   REMARKS
$$

TNZ017-018-042-046-047-210100-
NORTHEAST TENNESSEE
  
CITY           SKY/WX    TMP DP  RH WIND       PRES   REMARKS
TRI CITIES     FAIR      71  62  73 CALM      30.25R                  
$$

TNZ012-013-036-069-073-074-210100-
CENTRAL EAST TENNESSEE
  
CITY           SKY/WX    TMP DP  RH WIND       PRES   REMARKS
KNOXVILLE      FAIR      79  58  48 E3        30.20S                  
OAK RIDGE      FAIR      80  60  50 CALM      30.22S                  
$$

TNZ083-085-099-210100-
SOUTHEAST TENNESSEE
  
CITY           SKY/WX    TMP DP  RH WIND       PRES   REMARKS
CHATTANOOGA    FAIR      82  57  42 SE6       30.21R                  
$$

SKY/WX REPORTED AS FAIR MEANS FEW OR NO CLOUDS BELOW
12 THOUSAND FEET.